Regional Weather Roundup
Issued by NWS Sterling, VA

Home | Current Version | Previous Version | Graphics & Text | Print | Product List | Glossary On
Versions: 1 2 3 4 5 6 7 8 9 10 11 12 13 14 15 16 17 18 19 20 21 22 23 24 25 26 27 28 29 30 31 32 33 34 35 36 37 38 39 40 41 42 43 44 45 46 47 48 49 50
212
ASUS41 KLWX 280811
RWRLWX

REGIONAL WEATHER ROUNDUP
NATIONAL WEATHER SERVICE BALTIMORE MD/WASHINGTON DC
400 AM EDT SUN MAY 28 2017

Note: "FAIR" indicates few or no clouds below 12,000 feet
with no significant weather and/or obstructions to visibility.
 TC=TEMPERATURE CELSIUS

 * =Non NWS site. Station does not report precipitation (e.g. rain,
    snow, etc.), thunder, or fog.

DCZ001-MDZ009-015-VAZ040>042-051-053>054-280900-
WASHINGTON METRO

CITY           SKY/WX    TMP DP  RH WIND       PRES   REMARKS
WASHINGTON NAT CLOUDY    63  62  97 NE3       29.89R
DULLES         CLOUDY    59  57  93 CALM      29.87F
ANDREWS AFB    PTCLDY    60  59  97 CALM      29.87S
FT BELVOIR     CLOUDY    59  57  94 CALM      29.87F
QUANTICO       PTCLDY    65  63  93 E6        29.87F
COLLEGE PARK*  CLEAR     57  56  97 CALM      29.88R
LEESBURG*      CLOUDY    61  61 100 NE3       29.88F FOG
MANASSAS*      CLOUDY    60  59  96 CALM      29.87F
GAITHERSBURG*  PTCLDY    59  58  96 CALM      29.89S FOG

$$

MDZ006>007-011-014-280900-
BALTIMORE METRO

CITY           SKY/WX    TMP DP  RH WIND       PRES   REMARKS
BWI AIRPORT    PTCLDY    59  59 100 CALM      29.88S
MD SCIENCE CTR   N/A     64  62  93 MISG      29.88S
MARTIN STATE   MOCLDY    61  61 100 CALM      29.90S FOG
ANNAPOLIS      CLEAR     65  62  90 SE5       29.87F
FORT MEADE*    MOCLDY    55  54  94 CALM      29.90S

$$

MDZ012-015-019>023-280900-
MARYLAND EASTERN SHORE

CITY           SKY/WX    TMP DP  RH WIND       PRES   REMARKS
OCEAN CITY     CLEAR     61  57  87 E3        29.88F
SALISBURY      PTCLDY    58  56  93 NE3       29.87F
BAY BRIDGE AP* CLEAR     61  57  88 SE3       29.88F
CAMBRIDGE*     PTCLDY    61  57  88 CALM      29.87S
EASTON*        CLEAR     61  56  84 CALM      29.91S

$$

MDZ017>025-280900-
SOUTHERN MARYLAND

CITY           SKY/WX    TMP DP  RH WIND       PRES   REMARKS
PATUXENT RIVER CLOUDY    63  61  93 SE6       29.86F
ST INIGOES     CLOUDY    63  60  90 CALM      29.86F
LEONARDTOWN*   CLOUDY    59  59 100 CALM      29.88F

$$

MDZ003>005-280900-
NORTH CENTRAL MARYLAND

CITY           SKY/WX    TMP DP  RH WIND       PRES   REMARKS
FREDERICK*     FOG       61  61 100 CALM      29.91S VSB 1/2
HAGERSTOWN APT FOG       59  59 100 CALM      29.87F VSB 1/2
WESTMINSTER*   FOG       57  57 100 CALM      29.89S VSB 1/4

$$

MDZ501>502-280900-
WESTERN MARYLAND

CITY           SKY/WX    TMP DP  RH WIND       PRES   REMARKS
OAKLAND*       FOG       57  57 100 SE8       29.92S VSB 1/4
CUMBERLAND*    CLOUDY    61  61 100 CALM      29.91F VSB 1/4

$$

VAZ025>031-280900-
SHENANDOAH VALLEY

CITY           SKY/WX    TMP DP  RH WIND       PRES   REMARKS
WINCHESTER*    FOG       59  59 100 CALM      29.87F VSB<1/4
FRONT ROYAL*   PTCLDY    59  59 100 CALM      29.85F
LURAY*         CLOUDY    61  61 100 CALM      29.86F FOG
NEW MARKET*    CLOUDY    61  60  97 CALM      29.86F
STAUNTON*      CLOUDY    62  61  95 CALM      29.89F FOG
WAYNESBORO*    PTCLDY    62  62 100 CALM      29.88F

$$

WVZ021-048>050-054>055-280900-
EASTERN WEST VIRGINIA PANHANDLE

CITY           SKY/WX    TMP DP  RH WIND       PRES   REMARKS
MARTINSBURG    FOG       57  57 100 E3        29.86F VSB 1/4
PETERSBURG*    CLOUDY    64  64  98 CALM      29.87F FOG

$$

VAZ036>039-050-280900-
CENTRAL FOOTHILLS

CITY           SKY/WX    TMP DP  RH WIND       PRES   REMARKS
CHARLOTTESVILL MOCLDY    63  62  97 CALM      29.86S FOG
CULPEPER*      CLOUDY    61  61 100 CALM      29.87F FOG
ORANGE*        MOCLDY    59  59 100 CALM      29.86F FOG
GORDONSVILLE*  CLOUDY    61  61 100 CALM      29.85F
WARRENTON*     CLOUDY    62  59  90 NE3       29.86F

$$

VAZ055>057-280900-
NORTH AND CENTRAL PIEDMONT

CITY           SKY/WX    TMP DP  RH WIND       PRES   REMARKS
FREDERICKSBRG* PTCLDY    62  62 100 CALM      29.85F
STAFFORD*      PTCLDY    57  57 100 CALM      29.90F FOG

$$

NCZ024-NYZ072-PAZ021-071-VAZ022-071-280900-
OTHER REGIONAL OBSERVATIONS

CITY           SKY/WX    TMP DP  RH WIND       PRES   REMARKS
NEW YORK CITY  CLEAR     59  57  93 E3        29.91F
PHILADELPHIA   MOCLDY    62  60  93 CALM      29.89R
PITTSBURGH     FOG       57  57 100 CALM      29.84S VSB 1/4
ROANOKE        PTCLDY    68  65  90 CALM      29.88S
RICHMOND       FOG       65  64  97 NE3       29.84F VSB 1
RALEIGH        MOCLDY    67  66  97 CALM      29.84S

$$

ANZ530>537-280900-
MARINE OBSERVATIONS

STATION/POSITION TIME  TEMP    WIND        PRES
                       AIR SEA DIR/SP/G
                 (UTC) (F)     (DEG/KT/KT) (MB)
THOMAS PT LIGHT  0800   63 65  130/  7/  7   N/A
BALT KEY BRIDGE  0748   63      50/  4/  5 1011.7F
COVE POINT       0748   65     130/  7/  9 1011.8F
LEWISETTA        0748   66 70  130/ 11/ 12 1010.8F
SOLOMONS ISLAND  0748   66 68  100/  8/  9   N/A
PINEY POINT      0742           90/  6/  7   N/A

$$





USA.gov is the U.S. government's official web portal to all federal, state and local government web resources and services.